Weather History for KRWF - October, 2013

Change the Weather History Date:

Tuesday, October 8, 2013

  Actual Average Record
Temperature  
Mean Temperature 64 °F -  
Max Temperature 79 °F 60 °F 90 °F (2010)
Min Temperature 48 °F 41 °F 16 °F (2000)
Degree Days  
Heating Degree Days 2    
Growing Degree Days 14 (Base 50)    
Moisture  
Dew Point 44 °F    
Average Humidity 54    
Maximum Humidity 86    
Minimum Humidity 27    
Precipitation  
Precipitation 0.00 in - - ()
Sea Level Pressure  
Sea Level Pressure 29.82 in    
Wind  
Wind Speed 13 mph (South)    
Max Wind Speed 28 mph    
Max Gust Speed 39 mph    
Visibility 10 miles    
Events      
Averages and records for this station are not official NWS values.
T = Trace of Precipitation, MM = Missing Value Source: NWS Daily Summary

Daily Weather History Graph

Daily Weather History Graph

Search for Another Location

Airport or City:

Trip Planner

Search our weather history database for the weather conditions in past years. The results will help you decide how hot, cold, wet, or windy it might be!

Date:

Astronomy

Oct. 08, 2013 Rise Set
Actual Time 7:27 AM CDT 6:47 PM CDT
Civil Twilight 6:57 AM CDT 7:16 PM CDT
Nautical Twilight 6:24 AM CDT 7:50 PM CDT
Astronomical Twilight 5:50 AM CDT 8:24 PM CDT
Moon 11:31 AM CDT (10/8) 9:15 PM CDT (10/8)
Length of Visible Light 12h 18m
Length of Day
11h 20m
Waxing Crescent, 16% of the Moon is Illuminated
Oct 8
Waxing Crescent
Oct 11
First Quarter
Oct 18
Full
Oct 26
Last Quarter
Nov 3
New

Hourly Weather History & Observations

Time (CDT) Temp. Dew Point Humidity Pressure Visibility Wind Dir Wind Speed Gust Speed Precip Events Conditions
12:53 AM 48.9 °F 44.1 °F 83% 29.92 in 10.0 mi SE 6.9 mph - N/A   Clear
1:53 AM 48.0 °F 44.1 °F 86% 29.91 in 10.0 mi SSE 6.9 mph - N/A   Clear
2:53 AM 48.9 °F 44.1 °F 83% 29.89 in 10.0 mi SSE 9.2 mph - N/A   Clear
3:53 AM 50.0 °F 43.0 °F 77% 29.87 in 10.0 mi SSE 10.4 mph - N/A   Clear
4:53 AM 48.9 °F 43.0 °F 80% 29.86 in 10.0 mi SSE 11.5 mph - N/A   Clear
5:53 AM 48.9 °F 42.1 °F 77% 29.85 in 10.0 mi South 11.5 mph - N/A   Clear
6:53 AM 50.0 °F 42.1 °F 74% 29.85 in 10.0 mi South 11.5 mph - N/A   Clear
7:53 AM 55.0 °F 42.1 °F 62% 29.84 in 10.0 mi South 13.8 mph - N/A   Clear
8:53 AM 59.0 °F 42.1 °F 53% 29.83 in 10.0 mi South 16.1 mph - N/A   Clear
9:53 AM 64.0 °F 44.1 °F 48% 29.82 in 10.0 mi South 18.4 mph 24.2 mph N/A   Clear
10:53 AM 68.0 °F 44.1 °F 42% 29.81 in 10.0 mi South 20.7 mph 27.6 mph N/A   Clear
11:53 AM 73.0 °F 44.1 °F 35% 29.78 in 10.0 mi SSW 21.9 mph 31.1 mph N/A   Clear
12:53 PM 75.9 °F 44.1 °F 32% 29.77 in 10.0 mi SSW 27.6 mph 36.8 mph N/A   Clear
1:53 PM 78.1 °F 44.1 °F 30% 29.75 in 10.0 mi South 25.3 mph 38.0 mph N/A   Clear
2:53 PM 79.0 °F 42.1 °F 27% 29.75 in 10.0 mi South 20.7 mph 39.1 mph N/A   Clear
3:53 PM 75.9 °F 43.0 °F 31% 29.75 in 10.0 mi South 26.5 mph 34.5 mph N/A   Clear
4:53 PM 75.9 °F 44.1 °F 32% 29.75 in 10.0 mi South 17.3 mph - N/A   Clear
5:53 PM 75.0 °F 44.1 °F 33% 29.76 in 10.0 mi South 17.3 mph 26.5 mph N/A   Clear
6:53 PM 71.1 °F 44.1 °F 38% 29.78 in 10.0 mi South 10.4 mph - N/A   Clear
7:53 PM 64.9 °F 46.0 °F 50% 29.81 in 10.0 mi South 8.1 mph - N/A   Clear
8:53 PM 63.0 °F 46.0 °F 54% 29.83 in 10.0 mi SSE 11.5 mph - N/A   Clear
9:53 PM 60.1 °F 46.0 °F 60% 29.84 in 10.0 mi South 10.4 mph - N/A   Clear
10:53 PM 62.1 °F 46.0 °F 56% 29.85 in 10.0 mi South 13.8 mph - N/A   Clear
11:53 PM 62.1 °F 46.0 °F 56% 29.86 in 10.0 mi South 12.7 mph - N/A   Clear